Location: Chevoux
(46.3801°N, 4.9476°E)
Time: 01:43:05
(UTC+00:00)

Altair - All Passes

Search period start: 12 May 2021 00:00
Search period end: 22 May 2021 00:00
Orbit: 1501 x 1683 km, 47.2° (Epoch: 11 May)

Date Brightness Start Highest point End Pass type
(mag) Time Alt. Az. Time Alt. Az. Time Alt. Az.
12 May - 01:58:44 10° W 02:08:57 86° N 02:18:54 10° E visible
12 May - 04:03:55 10° WNW 04:14:00 79° SSW 04:23:43 10° ESE daylight
12 May - 06:09:10 10° WNW 06:17:56 37° SW 06:26:24 10° SSE daylight
12 May - 21:27:18 10° S 21:35:16 27° SE 21:43:13 10° E visible
12 May - 23:28:49 10° SW 23:38:51 66° SSE 23:48:46 10° ENE visible
13 May - 01:33:28 10° W 01:43:42 86° N 01:53:41 10° E visible
13 May - 03:38:41 10° WNW 03:48:48 81° SSW 03:58:34 10° ESE daylight
13 May - 05:43:52 10° WNW 05:52:51 40° SW 06:01:31 10° SSE daylight
13 May - 21:02:34 10° S 21:10:11 25° SE 21:17:50 10° E visible
13 May - 23:03:41 10° SW 23:13:40 63° SSE 23:23:33 10° ENE visible
14 May - 01:08:13 10° W 01:18:27 87° N 01:28:30 10° E visible
14 May - 03:13:26 10° WNW 03:23:35 84° SSW 03:33:24 10° ESE visible
14 May - 05:18:35 10° WNW 05:27:45 43° SW 05:36:36 10° SSE daylight
14 May - 07:27:23 10° WSW 07:30:21 12° WSW 07:33:17 10° SW daylight
14 May - 20:37:53 10° S 20:45:08 23° SE 20:52:23 10° E visible
14 May - 22:38:36 10° SW 22:48:29 60° SSE 22:58:20 10° ENE visible
15 May - 00:42:57 10° W 00:53:13 88° N 01:03:16 10° E visible
15 May - 02:48:11 10° WNW 02:58:22 86° SSW 03:08:14 10° ESE visible
15 May - 04:53:18 10° WNW 05:02:39 46° SW 05:11:39 10° SSE daylight
15 May - 07:01:11 10° W 07:05:21 13° WSW 07:09:29 10° SSW daylight
15 May - 20:13:16 10° S 20:20:05 21° SE 20:26:54 10° E visible
15 May - 22:13:31 10° SW 22:23:19 57° SSE 22:33:07 10° ENE visible
16 May - 00:17:43 10° WSW 00:27:58 89° NNW 00:38:03 10° E visible
16 May - 02:22:56 10° WNW 02:33:09 88° SSW 02:43:03 10° ESE visible
16 May - 04:28:02 10° WNW 04:37:31 49° SW 04:46:40 10° SE daylight
16 May - 06:35:18 10° W 06:40:21 15° WSW 06:45:20 10° SSW daylight
16 May - 19:48:44 10° SSE 19:55:02 19° SE 20:01:21 10° E visible
16 May - 21:48:27 10° SW 21:58:09 54° SE 22:07:54 10° ENE visible
16 May - 23:52:28 10° WSW 00:02:43 90° SSE 00:12:50 10° E visible
17 May - 01:57:41 10° W 02:07:55 89° SSW 02:17:52 10° ESE visible
17 May - 04:02:46 10° WNW 04:12:23 53° SW 04:21:41 10° SE daylight
17 May - 06:09:35 10° W 06:15:21 17° SW 06:21:01 10° SSW daylight
17 May - 19:24:19 10° SSE 19:30:01 17° SE 19:35:43 10° E daylight
17 May - 21:23:24 10° SW 21:33:00 51° SE 21:42:39 10° ENE visible
17 May - 23:27:15 10° WSW 23:37:29 88° SSE 23:47:37 10° E visible
18 May - 01:32:26 10° W 01:42:41 89° NNE 01:52:40 10° ESE visible
18 May - 03:37:31 10° WNW 03:47:15 56° SW 03:56:39 10° SE daylight
18 May - 05:43:58 10° W 05:50:20 19° SW 05:56:34 10° SSW daylight
18 May - 19:00:01 10° SSE 19:04:59 15° ESE 19:09:58 10° E daylight
18 May - 20:58:23 10° SSW 21:07:52 48° SE 21:17:24 10° ENE visible
18 May - 23:02:01 10° WSW 23:12:14 86° SSE 23:22:24 10° ENE visible
19 May - 01:07:11 10° W 01:17:27 88° N 01:27:28 10° E visible
19 May - 03:12:15 10° WNW 03:22:06 59° SSW 03:31:37 10° SE visible
19 May - 05:18:26 10° W 05:25:18 21° SW 05:32:01 10° S daylight
19 May - 18:35:56 10° SE 18:39:58 13° ESE 18:44:01 10° E daylight
19 May - 20:33:23 10° SSW 20:42:43 45° SE 20:52:09 10° ENE visible
19 May - 22:36:49 10° WSW 22:47:01 84° SSE 22:57:11 10° ENE visible
20 May - 00:41:55 10° W 00:52:11 87° N 01:02:15 10° E visible
20 May - 02:47:01 10° WNW 02:56:56 62° SSW 03:06:33 10° SE visible
20 May - 04:52:57 10° W 05:00:16 24° SW 05:07:25 10° S daylight
20 May - 18:12:16 10° SE 18:14:58 11° ESE 18:17:40 10° ESE daylight
20 May - 20:08:25 10° SSW 20:17:36 42° SE 20:26:53 10° ENE visible
20 May - 22:11:37 10° WSW 22:21:47 82° SSE 22:31:58 10° ENE visible
21 May - 00:16:41 10° W 00:26:57 86° N 00:37:02 10° E visible
21 May - 02:21:47 10° WNW 02:31:46 65° SSW 02:41:28 10° SE visible
21 May - 04:27:32 10° W 04:35:13 26° SW 04:42:45 10° S daylight
21 May - 19:43:29 10° SSW 19:52:29 39° SE 20:01:36 10° ENE visible
21 May - 21:46:26 10° WSW 21:56:34 80° SSE 22:06:44 10° ENE visible
